Hourly Data Report for May 26, 2012

All times are specified in Local Standard Time (LST). Add 1 hour to adjust for Daylight Saving Time where and when it is observed.

YARMOUTH A
NOVA SCOTIA

43°49'37.000" N
66°05'17.000" W
42.90 m
8206495
71603
YQI

Download Data

Hourly Data (May 2012)
Hourly Data Report for May 26, 2012
Temp Definition
°C
Dew Point Temp Definition
°C
Rel Hum Definition
%
Wind Dir Definition
10's deg

Wind Spd Definition
km/h
Visibility Definition
km
Stn Press Definition
kPa
Hmdx Definition


Wind Chill Definition


Weather Definition


TIME
00:00 12.2 12.1 99 18 15 10.0 101.75     LegendNANA
01:00 12.3 12.2 99 19 15 10.0 101.68     LegendNANA
02:00 12.8 12.5 98 19 17 10.0 101.58     Cloudy
03:00 12.7 12.7 100 20 19 0.8 101.52     Fog
04:00 13.0 13.0 100 20 22 1.2 101.46     Fog
05:00 14.1 14.3 101 20 25 0.8 101.49     Drizzle,Fog
06:00 13.2 13.4 101 21 17 0.4 101.48     Fog
07:00 13.4 13.6 101 21 18 0.4 101.45     Fog
08:00 14.2 14.4 101 21 18 2.4 101.36     Fog
09:00 13.9 13.8 99 22 20 1.2 101.37     Fog
10:00 15.9 15.0 94 22 24 2.4 101.35     Fog
11:00 14.0 13.5 97 23 19 2.4 101.32     Fog
12:00 14.6 14.1 97 23 17 1.6 101.29     Fog
13:00 14.4 14.1 98 23 20 0.8 101.28     Fog
14:00 13.7 13.6 99 26 15 0.6 101.26     Fog
15:00 13.7 13.6 99 23 12 0.8 101.16     Fog
16:00 13.9 13.3 96 26 13 0.8 101.16     Fog
17:00 13.9 13.6 98 26 11 0.8 101.11     Fog
18:00 13.1 13.1 100 25 10 0.4 101.13     Fog
19:00 12.5 12.5 100 26 5 0.4 101.15     Fog
20:00 12.7 12.9 101 18 6 0.2 101.16     Fog
21:00 12.6 12.8 101 21 5 0.2 101.25     Fog
22:00 11.4 11.6 101 30 6 0.4 101.28     Fog
23:00 11.7 11.9 101 30 10 8.1 101.30     Fog

Notes on Data Quality.

Legend

  • E = Estimated
  • M = Missing
  • NA = Not Available
Date modified: